STARLINK-5398, 54866

Orbit data source: Space-Track

STARLINK-5398, 54866 is a payload satellite owned by SpaceX/Seattle (US) in LEO that was launched on Wed, 28 Dec 2022 UTC via an FALCON 9 launch vehicle from the Air Force Eastern Test Range (AFETR). Payload-class satellites include a variety of spacecraft equipped with specific instruments for various scientific and technological missions. These include communications satellites like Starlink; space stations such as the ISS; scientific satellites like the Hubble; Earth observation satellites from companies like Planet Labs, Umbra, and HawkEye 360; GPS; miniature CubeSats for education and research; and military/defense satellites.

Loading next visibility...
Identifier
54866, 2022-177AY
Orbit
LEO
Country
Flag of USUS
Related business
Manufacturer
SpaceX/Seattle
Mission
Operational Commercial Communications
Bus & Motor
STARLINK, Unknown motor
Mass
305 kg wet, ~290 kg dry
Launch date (UTC)
2022-12-28 (3 years ago)
Launch vehicle
FALCON 9
Launch site
Air Force Eastern Test Range (AFETR)
Object type
Payload
Rocket body
Debris
Shape & HBR
Box + 1 Pan, 10.1 m
Radar Cross Section
13.562 m², Large (>1 m²)

Expand to show TLE details & history
Last TLE update: 2 days ago

TLE from 2 days ago
0 STARLINK-5398
1 54866U 22177AY  26171.27029663  .00000231  00000-0  17927-4 0  9996
2 54866  43.0023 261.8593 0001387 268.0637  92.0056 15.27578682192788
Epoch: 2026-06-20T06:29Z
TLE epoch observation values (Epoch: 2026-06-20T06:29:13.628Z)
Latitude
-0.00002°
Longitude
-103.93484°
Altitude
482.862 km
Speed
7.626 km/s
True Right ascension
17h 27m 26s
True Declination
0° 00' 00"
Sunlit
Object was in full shadow at epoch
Visualization orbit readout
Latitude
Unknown
Longitude
Unknown
Altitude
Unknown
Speed
Unknown
Apparent Right ascension
Unknown
Apparent Declination
Unknown
Sunlit
N/A
Visualization observer readout
Local Sidereal Time
21:24:08
Azimuth
Unknown
Elevation
Unknown
Doppler factor
Unknown
Orbital elements
Apogee altitude
485.95 km
Perigee altitude
484.046 km
Semi-major axis
6,863.135 km
Eccentricity
0.00014
Inclination
43.0023°
RAAN
261.8593°
Arg. of periapsis
268.0637°
True anomaly
92.02148°
Mean anomaly
92.0056°
Eccentric anomaly
92.01354°
Mean motion
3.81733 °/min
Orbital period
94.31 mins
BSTAR
0.000017927
Loading maneuver chart data...
Computing Atmospheric mass density...
Loading historical data...
Loading historical data...
Loading historical data...
Loading historical data...
Loading historical data...
Loading historical data...
Loading historical data...

Documentation

Showing up to 5 results
|